| time (UTC) | temp F | wind direction | speed MPH | gust MPH | rain 1hr in | rain 24hr in | rain mn in | humidity % | barometer mb |
| 20260507050412 | 40 | 213 | 1.0 | 4.0 | 0.00 | 0.35 | 0.00 | 86 | 1007.0 |
| 20260507044912 | 40 | 220 | 1.0 | 3.0 | 0.00 | 0.35 | 0.00 | 86 | 1007.2 |
| 20260507043412 | 40 | 207 | 2.0 | 4.0 | 0.00 | 0.35 | 0.00 | 86 | 1007.2 |
| 20260507040412 | 39 | 210 | 0.0 | 2.0 | 0.00 | 0.35 | 0.35 | 86 | 1007.5 |
| 20260507034912 | 39 | 193 | 0.0 | 2.0 | 0.00 | 0.35 | 0.35 | 86 | 1007.5 |
| 20260507033412 | 40 | 187 | 0.0 | 0.0 | 0.00 | 0.35 | 0.35 | 86 | 1007.5 |
| 20260507031912 | 40 | 178 | 0.0 | 0.0 | 0.00 | 0.35 | 0.35 | 86 | 1007.7 |
| 20260507030412 | 40 | 217 | 0.0 | 0.0 | 0.00 | 0.35 | 0.35 | 85 | 1007.9 |
| 20260507024912 | 40 | 217 | 0.0 | 0.0 | 0.00 | 0.35 | 0.35 | 84 | 1008.1 |
| 20260507023412 | 41 | 221 | 0.0 | 0.0 | 0.00 | 0.35 | 0.35 | 85 | 1008.2 |
| 20260507021912 | 41 | 216 | 0.0 | 0.0 | 0.00 | 0.35 | 0.35 | 85 | 1008.3 |
| 20260507020412 | 41 | 248 | 0.0 | 0.0 | 0.00 | 0.35 | 0.35 | 85 | 1008.5 |
| 20260507014912 | 41 | 248 | 0.0 | 0.0 | 0.00 | 0.35 | 0.35 | 84 | 1008.4 |
| 20260507013412 | 41 | 248 | 0.0 | 0.0 | 0.00 | 0.35 | 0.35 | 83 | 1008.5 |
| 20260507011912 | 41 | 248 | 0.0 | 0.0 | 0.00 | 0.35 | 0.35 | 83 | 1008.3 |
| 20260507010412 | 41 | 248 | 0.0 | 0.0 | 0.00 | 0.35 | 0.35 | 83 | 1008.3 |
| 20260507004912 | 41 | 248 | 0.0 | 0.0 | 0.00 | 0.35 | 0.35 | 82 | 1008.2 |
| 20260507003412 | 41 | 248 | 0.0 | 0.0 | 0.00 | 0.35 | 0.35 | 81 | 1008.3 |
| 20260507001912 | 42 | 248 | 0.0 | 0.0 | 0.00 | 0.35 | 0.35 | 81 | 1008.2 |
| 20260507000412 | 42 | 248 | 0.0 | 0.0 | 0.00 | 0.35 | 0.35 | 80 | 1008.2 |
| 20260506234912 | 42 | 248 | 0.0 | 0.0 | 0.00 | 0.35 | 0.35 | 78 | 1008.0 |
| 20260506233412 | 43 | 253 | 0.0 | 0.0 | 0.00 | 0.35 | 0.35 | 77 | 1008.0 |
| 20260506231912 | 43 | 240 | 0.0 | 2.0 | 0.00 | 0.35 | 0.35 | 76 | 1008.0 |
| 20260506230412 | 44 | 248 | 1.0 | 2.0 | 0.00 | 0.35 | 0.35 | 75 | 1008.2 |
| 20260506224912 | 44 | 239 | 0.0 | 1.0 | 0.00 | 0.35 | 0.35 | 75 | 1008.1 |
| 20260506223412 | 44 | 262 | 2.0 | 4.0 | 0.00 | 0.35 | 0.35 | 74 | 1008.0 |
| 20260506221912 | 44 | 264 | 2.0 | 4.0 | 0.00 | 0.35 | 0.35 | 75 | 1008.0 |
| 20260506220412 | 44 | 254 | 2.0 | 4.0 | 0.00 | 0.35 | 0.35 | 74 | 1008.1 |
| 20260506214912 | 44 | 265 | 1.0 | 3.0 | 0.00 | 0.35 | 0.35 | 77 | 1008.2 |
| 20260506213412 | 44 | 279 | 1.0 | 3.0 | 0.00 | 0.35 | 0.35 | 76 | 1008.2 |
| 20260506211912 | 44 | 268 | 1.0 | 4.0 | 0.00 | 0.35 | 0.35 | 75 | 1008.2 |
| 20260506210412 | 44 | 276 | 1.0 | 2.0 | 0.00 | 0.35 | 0.35 | 76 | 1008.3 |
| 20260506204912 | 44 | 242 | 1.0 | 3.0 | 0.00 | 0.35 | 0.35 | 76 | 1008.2 |
| 20260506203412 | 44 | 271 | 1.0 | 3.0 | 0.00 | 0.35 | 0.35 | 77 | 1008.3 |
| 20260506201912 | 44 | 263 | 1.0 | 3.0 | 0.00 | 0.35 | 0.35 | 76 | 1008.4 |
| 20260506200412 | 44 | 218 | 2.0 | 3.0 | 0.00 | 0.35 | 0.35 | 77 | 1008.4 |
| 20260506194912 | 45 | 275 | 2.0 | 5.0 | 0.00 | 0.35 | 0.35 | 77 | 1008.4 |
| 20260506193412 | 45 | 255 | 2.0 | 6.0 | 0.00 | 0.35 | 0.35 | 76 | 1008.7 |
| 20260506191912 | 45 | 240 | 1.0 | 3.0 | 0.00 | 0.35 | 0.35 | 76 | 1008.5 |
| 20260506190412 | 45 | 269 | 1.0 | 5.0 | 0.00 | 0.35 | 0.35 | 77 | 1008.7 |
| 20260506184912 | 45 | 224 | 1.0 | 3.0 | 0.00 | 0.35 | 0.35 | 76 | 1008.6 |
| 20260506183412 | 45 | 223 | 1.0 | 4.0 | 0.00 | 0.35 | 0.35 | 79 | 1008.9 |
| 20260506181912 | 45 | 208 | 1.0 | 3.0 | 0.00 | 0.35 | 0.35 | 80 | 1008.7 |
| 20260506180412 | 44 | 240 | 2.0 | 4.0 | 0.00 | 0.35 | 0.35 | 82 | 1008.8 |
| 20260506174912 | 43 | 222 | 1.0 | 4.0 | 0.00 | 0.35 | 0.35 | 82 | 1008.9 |
| 20260506173412 | 43 | 203 | 1.0 | 5.0 | 0.02 | 0.35 | 0.35 | 83 | 1009.1 |
| 20260506171912 | 42 | 214 | 1.0 | 3.0 | 0.04 | 0.35 | 0.35 | 84 | 1009.3 |
| 20260506170412 | 42 | 162 | 1.0 | 4.0 | 0.05 | 0.35 | 0.35 | 85 | 1009.6 |
| 20260506164912 | 41 | 179 | 1.0 | 3.0 | 0.06 | 0.35 | 0.35 | 85 | 1009.7 |
| 20260506163412 | 41 | 217 | 1.0 | 3.0 | 0.06 | 0.33 | 0.33 | 83 | 1010.0 |
| 20260506161912 | 41 | 198 | 1.0 | 2.0 | 0.06 | 0.32 | 0.31 | 84 | 1010.1 |
| 20260506160412 | 42 | 189 | 1.0 | 3.0 | 0.06 | 0.31 | 0.30 | 83 | 1010.1 |
| 20260506154912 | 42 | 153 | 1.0 | 3.0 | 0.06 | 0.30 | 0.29 | 84 | 1010.2 |
| 20260506153412 | 42 | 169 | 1.0 | 3.0 | 0.05 | 0.28 | 0.27 | 84 | 1010.2 |
| 20260506151912 | 42 | 176 | 1.0 | 2.0 | 0.05 | 0.31 | 0.25 | 83 | 1010.3 |
| 20260506150412 | 42 | 176 | 1.0 | 3.0 | 0.07 | 0.30 | 0.24 | 83 | 1010.3 |
| 20260506144912 | 42 | 231 | 0.0 | 2.0 | 0.07 | 0.29 | 0.23 | 84 | 1010.4 |
| 20260506143412 | 42 | 182 | 1.0 | 3.0 | 0.07 | 0.28 | 0.22 | 82 | 1010.4 |
| 20260506141912 | 42 | 195 | 2.0 | 3.0 | 0.06 | 0.26 | 0.20 | 83 | 1010.4 |
| 20260506140412 | 42 | 249 | 1.0 | 5.0 | 0.05 | 0.23 | 0.17 | 84 | 1010.5 |
| 20260506134912 | 42 | 205 | 1.0 | 3.0 | 0.05 | 0.22 | 0.16 | 84 | 1010.3 |
| 20260506133412 | 42 | 224 | 1.0 | 3.0 | 0.04 | 0.21 | 0.15 | 84 | 1010.1 |
| 20260506131912 | 43 | 263 | 1.0 | 5.0 | 0.04 | 0.20 | 0.14 | 83 | 1010.0 |
| 20260506130412 | 43 | 229 | 1.0 | 3.0 | 0.03 | 0.18 | 0.12 | 82 | 1010.1 |
| 20260506124912 | 43 | 212 | 2.0 | 4.0 | 0.03 | 0.17 | 0.11 | 83 | 1010.0 |
| 20260506123412 | 43 | 229 | 2.0 | 8.0 | 0.04 | 0.17 | 0.11 | 83 | 1010.2 |
| 20260506121912 | 43 | 214 | 1.0 | 5.0 | 0.04 | 0.16 | 0.10 | 82 | 1010.3 |
| 20260506120412 | 43 | 212 | 1.0 | 2.0 | 0.05 | 0.15 | 0.09 | 84 | 1010.1 |
| 20260506114912 | 43 | 207 | 2.0 | 5.0 | 0.05 | 0.14 | 0.08 | 82 | 1010.1 |
| 20260506113412 | 43 | 238 | 1.0 | 7.0 | 0.04 | 0.13 | 0.07 | 81 | 1010.1 |
| 20260506111912 | 43 | 234 | 2.0 | 5.0 | 0.04 | 0.12 | 0.06 | 80 | 1010.3 |
| 20260506110412 | 43 | 258 | 1.0 | 2.0 | 0.04 | 0.10 | 0.04 | 80 | 1010.0 |
| 20260506104912 | 44 | 271 | 1.0 | 2.0 | 0.03 | 0.09 | 0.03 | 79 | 1009.9 |
| 20260506103412 | 44 | 253 | 1.0 | 5.0 | 0.03 | 0.09 | 0.03 | 77 | 1009.7 |
| 20260506101912 | 45 | 262 | 2.0 | 4.0 | 0.02 | 0.08 | 0.02 | 75 | 1009.3 |
| 20260506100412 | 46 | 243 | 3.0 | 7.0 | 0.00 | 0.06 | 0.00 | 74 | 1009.1 |
| 20260506094912 | 46 | 271 | 4.0 | 6.0 | 0.00 | 0.06 | 0.00 | 73 | 1009.1 |
| 20260506093412 | 47 | 261 | 1.0 | 4.0 | 0.00 | 0.06 | 0.00 | 81 | 1008.7 |
| 20260506091912 | 47 | 238 | 2.0 | 5.0 | 0.00 | 0.06 | 0.00 | 80 | 1008.6 |
| 20260506090412 | 47 | 250 | 2.0 | 6.0 | 0.00 | 0.06 | 0.00 | 80 | 1008.5 |
| 20260506084912 | 47 | 274 | 3.0 | 6.0 | 0.00 | 0.06 | 0.00 | 80 | 1008.8 |
| 20260506083412 | 48 | 236 | 2.0 | 7.0 | 0.00 | 0.06 | 0.00 | 79 | 1008.8 |
| 20260506081912 | 48 | 248 | 3.0 | 8.0 | 0.00 | 0.06 | 0.00 | 79 | 1008.8 |
| 20260506080412 | 48 | 250 | 3.0 | 7.0 | 0.00 | 0.06 | 0.00 | 78 | 1008.4 |
| 20260506073413 | 49 | 238 | 4.0 | 9.0 | 0.00 | 0.06 | 0.00 | 77 | 1008.2 |
| 20260506071912 | 49 | 251 | 3.0 | 8.0 | 0.00 | 0.06 | 0.00 | 76 | 1008.2 |
| 20260506070413 | 49 | 243 | 3.0 | 8.0 | 0.00 | 0.06 | 0.00 | 74 | 1008.0 |
| 20260506061913 | 50 | 238 | 3.0 | 7.0 | 0.00 | 0.06 | 0.00 | 73 | 1007.5 |
| 20260506060413 | 50 | 233 | 3.0 | 7.0 | 0.00 | 0.06 | 0.00 | 72 | 1007.4 |